^^
Your Local Weather - Clay, NY Station Historical Data
Daily Summary for February 17, 2017 Units:  English    Metric   Both
« Previous Day
Next Day »
Daily Weekly Monthly Yearly Custom
  High: Low: Average:
Temperature: 31.2 °F 16.3 °F 23.5 °F
Dew Point: 21.5 °F 13.1 °F 18.1 °F
Humidity: 89% 64% 80%
Wind Speed: 5.0mph 0.0mph 1mph
Wind Gust: 11.0mph - -
Wind- - West
Pressure: 29.92 in 29.81 in -
Precipitation: 0.11 in    
Historical Graphs
 
 
Tabular Data for February 17, 2017
Time Temperature Dew Point Pressure Wind Wind Speed Wind Gust Humidity Rainfall Rate (Hourly) solar
00:02 25.1 °F 18.6 °F 29.85 in NW 4.0 mph 6.0 mph 76% 0.00 in 0 W/m2
00:08 25.0 °F 18.8 °F 29.85 in WNW 3.0 mph 7.0 mph 77% 0.00 in 0 W/m2
00:14 25.0 °F 18.8 °F 29.85 in WNW 3.0 mph 3.0 mph 77% 0.00 in 0 W/m2
00:20 25.0 °F 18.8 °F 29.85 in WNW 3.0 mph 3.0 mph 77% 0.00 in 0 W/m2
00:26 25.0 °F 18.8 °F 29.85 in WNW 3.0 mph 3.0 mph 77% 0.00 in 0 W/m2
00:32 25.0 °F 18.8 °F 29.85 in WNW 2.0 mph 3.0 mph 77% 0.00 in 0 W/m2
00:38 25.0 °F 19.1 °F 29.86 in WNW 3.0 mph 6.0 mph 78% 0.00 in 0 W/m2
00:44 24.9 °F 19.0 °F 29.86 in WNW 3.0 mph 4.0 mph 78% 0.00 in 0 W/m2
00:50 24.9 °F 19.0 °F 29.86 in WNW 3.0 mph 3.0 mph 78% 0.00 in 0 W/m2
00:56 24.8 °F 18.9 °F 29.86 in NW 3.0 mph 8.0 mph 78% 0.00 in 0 W/m2
01:02 24.8 °F 18.6 °F 29.86 in WNW 4.0 mph 7.0 mph 77% 0.00 in 0 W/m2
01:08 24.7 °F 18.2 °F 29.86 in WNW 5.0 mph 11.0 mph 76% 0.00 in 0 W/m2
01:14 24.7 °F 18.2 °F 29.86 in NW 3.0 mph 4.0 mph 76% 0.00 in 0 W/m2
01:20 24.6 °F 18.1 °F 29.86 in NNW 4.0 mph 4.0 mph 76% 0.00 in 0 W/m2
01:26 24.4 °F 17.9 °F 29.86 in West 4.0 mph 5.0 mph 76% 0.00 in 0 W/m2
01:32 24.4 °F 17.6 °F 29.86 in WNW 3.0 mph 5.0 mph 75% 0.00 in 0 W/m2
01:38 24.2 °F 17.4 °F 29.86 in West 4.0 mph 5.0 mph 75% 0.00 in 0 W/m2
01:44 24.1 °F 17.3 °F 29.86 in NW 4.0 mph 5.0 mph 75% 0.00 in 0 W/m2
01:50 24.0 °F 17.5 °F 29.86 in WNW 3.0 mph 5.0 mph 76% 0.00 in 0 W/m2
01:56 24.0 °F 17.2 °F 29.86 in NW 3.0 mph 5.0 mph 75% 0.00 in 0 W/m2
02:02 23.8 °F 17.0 °F 29.86 in WNW 4.0 mph 6.0 mph 75% 0.00 in 0 W/m2
02:08 23.7 °F 16.9 °F 29.86 in WNW 5.0 mph 9.0 mph 75% 0.00 in 0 W/m2
02:14 23.6 °F 16.8 °F 29.86 in NW 5.0 mph 7.0 mph 75% 0.00 in 0 W/m2
02:20 23.5 °F 16.7 °F 29.86 in WNW 4.0 mph 5.0 mph 75% 0.00 in 0 W/m2
02:26 23.4 °F 16.9 °F 29.86 in WNW 3.0 mph 5.0 mph 76% 0.00 in 0 W/m2
02:32 23.2 °F 16.8 °F 29.86 in NW 4.0 mph 4.0 mph 76% 0.00 in 0 W/m2
02:38 23.1 °F 16.7 °F 29.86 in WNW 4.0 mph 6.0 mph 76% 0.00 in 0 W/m2
02:44 23.1 °F 16.7 °F 29.86 in WNW 3.0 mph 7.0 mph 76% 0.00 in 0 W/m2
02:50 23.0 °F 16.9 °F 29.86 in WNW 4.0 mph 5.0 mph 77% 0.00 in 0 W/m2
02:56 22.8 °F 16.7 °F 29.86 in WNW 3.0 mph 5.0 mph 77% 0.00 in 0 W/m2
03:02 22.7 °F 16.6 °F 29.86 in WNW 3.0 mph 3.0 mph 77% 0.00 in 0 W/m2
03:08 22.7 °F 16.9 °F 29.86 in NW 4.0 mph 6.0 mph 78% 0.00 in 0 W/m2
03:14 22.7 °F 16.9 °F 29.86 in West 4.0 mph 4.0 mph 78% 0.00 in 0 W/m2
03:20 22.7 °F 16.9 °F 29.86 in West 3.0 mph 6.0 mph 78% 0.00 in 0 W/m2
03:26 22.6 °F 16.8 °F 29.86 in WNW 3.0 mph 6.0 mph 78% 0.00 in 0 W/m2
03:32 22.5 °F 16.7 °F 29.87 in WNW 1.0 mph 2.0 mph 78% 0.00 in 0 W/m2
03:38 22.5 °F 16.7 °F 29.87 in NW 2.0 mph 2.0 mph 78% 0.00 in 0 W/m2
03:44 22.4 °F 16.9 °F 29.87 in NW 2.0 mph 2.0 mph 79% 0.00 in 0 W/m2
03:50 22.4 °F 16.9 °F 29.87 in NW 1.0 mph 1.0 mph 79% 0.00 in 0 W/m2
03:56 22.3 °F 16.8 °F 29.88 in NW 1.0 mph 3.0 mph 79% 0.00 in 0 W/m2
04:02 22.3 °F 16.8 °F 29.88 in NW 1.0 mph 2.0 mph 79% 0.00 in 0 W/m2
04:08 22.3 °F 16.8 °F 29.88 in NW 1.0 mph 2.0 mph 79% 0.00 in 0 W/m2
04:14 22.3 °F 16.8 °F 29.88 in NW 1.0 mph 4.0 mph 79% 0.00 in 0 W/m2
04:20 22.4 °F 16.9 °F 29.88 in West 2.0 mph 3.0 mph 79% 0.00 in 0 W/m2
04:26 22.4 °F 17.2 °F 29.88 in WNW 2.0 mph 3.0 mph 80% 0.00 in 0 W/m2
04:32 22.4 °F 17.2 °F 29.88 in WNW 1.0 mph 2.0 mph 80% 0.00 in 0 W/m2
04:38 22.4 °F 17.2 °F 29.89 in WNW 1.0 mph 3.0 mph 80% 0.00 in 0 W/m2
04:44 22.4 °F 16.9 °F 29.89 in WNW 2.0 mph 2.0 mph 79% 0.00 in 0 W/m2
04:50 22.4 °F 17.2 °F 29.89 in WNW 2.0 mph 4.0 mph 80% 0.00 in 0 W/m2
04:56 22.3 °F 17.1 °F 29.89 in WNW 1.0 mph 4.0 mph 80% 0.00 in 0 W/m2
05:02 22.3 °F 17.1 °F 29.89 in WNW 1.0 mph 1.0 mph 80% 0.00 in 0 W/m2
05:08 22.2 °F 17.3 °F 29.89 in WNW 1.0 mph 1.0 mph 81% 0.00 in 0 W/m2
05:14 22.2 °F 17.3 °F 29.89 in Calm   1.0 mph 81% 0.00 in 0 W/m2
05:20 22.1 °F 17.4 °F 29.89 in Calm     82% 0.00 in 0 W/m2
05:26 22.1 °F 17.4 °F 29.89 in Calm     82% 0.00 in 0 W/m2
05:32 22.0 °F 17.6 °F 29.89 in Calm     83% 0.00 in 0 W/m2
05:38 22.0 °F 17.9 °F 29.89 in Calm     84% 0.00 in 0 W/m2
05:44 21.9 °F 18.1 °F 29.89 in Calm   1.0 mph 85% 0.00 in 0 W/m2
05:50 21.8 °F 18.0 °F 29.89 in Calm     85% 0.00 in 0 W/m2
05:56 21.8 °F 18.3 °F 29.89 in Calm   1.0 mph 86% 0.00 in 0 W/m2
06:02 21.8 °F 18.3 °F 29.89 in Calm     86% 0.00 in 0 W/m2
06:08 21.8 °F 18.5 °F 29.89 in WNW 1.0 mph 3.0 mph 87% 0.00 in 0 W/m2
06:14 21.8 °F 18.5 °F 29.89 in WNW 1.0 mph 1.0 mph 87% 0.00 in 0 W/m2
06:20 21.8 °F 18.5 °F 29.89 in Calm     87% 0.00 in 0 W/m2
06:26 21.8 °F 18.5 °F 29.89 in Calm   2.0 mph 87% 0.00 in 0 W/m2
06:32 21.8 °F 18.5 °F 29.89 in West 1.0 mph 1.0 mph 87% 0.00 in 0 W/m2
06:38 21.9 °F 18.6 °F 29.89 in West 1.0 mph 1.0 mph 87% 0.00 in 0 W/m2
06:44 22.0 °F 18.7 °F 29.89 in West 1.0 mph 2.0 mph 87% 0.00 in 0 W/m2
06:50 22.0 °F 18.7 °F 29.89 in West 1.0 mph 1.0 mph 87% 0.00 in 0 W/m2
06:56 22.0 °F 18.7 °F 29.89 in West 1.0 mph 1.0 mph 87% 0.00 in 0 W/m2
07:02 22.0 °F 18.5 °F 29.89 in Calm   1.0 mph 86% 0.00 in 5 W/m2
07:08 22.0 °F 18.5 °F 29.89 in Calm   1.0 mph 86% 0.00 in 5 W/m2
07:14 22.0 °F 18.5 °F 29.89 in Calm     86% 0.00 in 7 W/m2
07:20 22.1 °F 18.6 °F 29.90 in Calm   1.0 mph 86% 0.00 in 9 W/m2
07:26 22.1 °F 18.6 °F 29.90 in West 1.0 mph 2.0 mph 86% 0.00 in 12 W/m2
07:32 22.2 °F 18.7 °F 29.91 in Calm   1.0 mph 86% 0.00 in 14 W/m2
07:38 22.3 °F 18.7 °F 29.91 in Calm   1.0 mph 86% 0.00 in 16 W/m2
07:44 22.3 °F 19.0 °F 29.91 in Calm   1.0 mph 87% 0.00 in 18 W/m2
07:50 22.3 °F 19.0 °F 29.91 in Calm     87% 0.00 in 25 W/m2
07:56 22.4 °F 19.1 °F 29.92 in Calm     87% 0.00 in 26 W/m2
08:02 22.5 °F 19.5 °F 29.92 in Calm     88% 0.00 in 37 W/m2
08:08 22.6 °F 19.6 °F 29.92 in Calm   1.0 mph 88% 0.00 in 44 W/m2
08:14 22.7 °F 19.7 °F 29.92 in Calm     88% 0.00 in 44 W/m2
08:20 22.8 °F 19.8 °F 29.92 in Calm     88% 0.00 in 44 W/m2
08:26 22.9 °F 19.6 °F 29.92 in Calm   2.0 mph 87% 0.00 in 47 W/m2
08:32 23.0 °F 19.7 °F 29.92 in West 1.0 mph 2.0 mph 87% 0.00 in 54 W/m2
08:38 23.0 °F 19.7 °F 29.92 in West 1.0 mph 2.0 mph 87% 0.00 in 51 W/m2
08:44 23.1 °F 19.8 °F 29.92 in Calm     87% 0.00 in 53 W/m2
08:50 23.3 °F 20.3 °F 29.92 in Calm     88% 0.00 in 69 W/m2
08:56 23.4 °F 20.1 °F 29.92 in West 1.0 mph 1.0 mph 87% 0.00 in 69 W/m2
09:02 23.4 °F 20.1 °F 29.92 in West 1.0 mph 1.0 mph 87% 0.00 in 65 W/m2
09:08 23.5 °F 20.2 °F 29.92 in Calm   1.0 mph 87% 0.00 in 76 W/m2
09:14 23.6 °F 20.3 °F 29.92 in Calm   1.0 mph 87% 0.00 in 86 W/m2
09:20 23.7 °F 20.1 °F 29.92 in Calm     86% 0.00 in 79 W/m2
09:26 23.9 °F 20.3 °F 29.92 in Calm     86% 0.00 in 76 W/m2
09:32 24.1 °F 20.5 °F 29.92 in Calm     86% 0.00 in 121 W/m2
09:38 24.4 °F 20.5 °F 29.92 in Calm     85% 0.00 in 104 W/m2
09:44 24.4 °F 20.3 °F 29.92 in Calm     84% 0.00 in 105 W/m2
09:50 24.5 °F 20.4 °F 29.92 in Calm   1.0 mph 84% 0.00 in 90 W/m2
09:56 24.4 °F 20.3 °F 29.92 in Calm   1.0 mph 84% 0.00 in 81 W/m2
10:02 24.4 °F 20.3 °F 29.92 in Calm     84% 0.00 in 98 W/m2
10:08 24.5 °F 20.4 °F 29.92 in Calm   1.0 mph 84% 0.00 in 107 W/m2
10:14 24.6 °F 20.5 °F 29.92 in Calm     84% 0.00 in 111 W/m2
10:20 24.7 °F 20.6 °F 29.92 in Calm     84% 0.00 in 102 W/m2
10:26 24.7 °F 20.8 °F 29.92 in Calm   1.0 mph 85% 0.00 in 125 W/m2
10:32 24.7 °F 20.8 °F 29.92 in West 1.0 mph 1.0 mph 85% 0.00 in 93 W/m2
10:38 24.8 °F 20.9 °F 29.92 in Calm   1.0 mph 85% 0.00 in 123 W/m2
10:44 24.9 °F 21.0 °F 29.92 in Calm   2.0 mph 85% 0.00 in 100 W/m2
10:50 24.9 °F 20.8 °F 29.92 in WNW 1.0 mph 1.0 mph 84% 0.00 in 123 W/m2
10:56 25.1 °F 20.9 °F 29.92 in WNW 1.0 mph 2.0 mph 84% 0.00 in 132 W/m2
11:02 25.3 °F 20.9 °F 29.92 in West 1.0 mph 1.0 mph 83% 0.00 in 132 W/m2
11:08 25.3 °F 20.9 °F 29.92 in SW 2.0 mph 4.0 mph 83% 0.00 in 163 W/m2
11:14 25.5 °F 21.1 °F 29.92 in WSW 2.0 mph 2.0 mph 83% 0.00 in 179 W/m2
11:20 25.6 °F 21.2 °F 29.92 in WSW 1.0 mph 3.0 mph 83% 0.00 in 169 W/m2
11:26 25.5 °F 21.1 °F 29.92 in WSW 2.0 mph 3.0 mph 83% 0.00 in 279 W/m2
11:32 25.9 °F 21.4 °F 29.91 in WSW 2.0 mph 3.0 mph 83% 0.00 in 341 W/m2
11:38 26.2 °F 21.5 °F 29.91 in West 2.0 mph 3.0 mph 82% 0.00 in 311 W/m2
11:44 26.5 °F 21.5 °F 29.91 in WSW 2.0 mph 4.0 mph 81% 0.00 in 297 W/m2
11:50 26.6 °F 21.3 °F 29.91 in WNW 2.0 mph 3.0 mph 80% 0.00 in 257 W/m2
11:56 26.7 °F 21.4 °F 29.91 in WSW 2.0 mph 4.0 mph 80% 0.00 in 257 W/m2
12:02 27.1 °F 21.5 °F 29.91 in West 1.0 mph 2.0 mph 79% 0.00 in 320 W/m2
12:08 27.3 °F 21.3 °F 29.91 in NW 2.0 mph 2.0 mph 78% 0.00 in 309 W/m2
12:14 27.3 °F 21.0 °F 29.91 in West 3.0 mph 5.0 mph 77% 0.00 in 311 W/m2
12:20 27.4 °F 20.8 °F 29.91 in NW 3.0 mph 3.0 mph 76% 0.00 in 301 W/m2
12:26 27.5 °F 20.9 °F 29.91 in WSW 2.0 mph 3.0 mph 76% 0.00 in 269 W/m2
12:32 27.6 °F 20.7 °F 29.91 in NW 2.0 mph 2.0 mph 75% 0.00 in 243 W/m2
12:38 27.7 °F 20.8 °F 29.91 in WNW 1.0 mph 4.0 mph 75% 0.00 in 225 W/m2
12:44 27.5 °F 20.6 °F 29.91 in WSW 2.0 mph 5.0 mph 75% 0.00 in 218 W/m2
12:50 27.5 °F 20.6 °F 29.90 in West 2.0 mph 2.0 mph 75% 0.00 in 264 W/m2
12:56 27.8 °F 20.6 °F 29.90 in West 1.0 mph 3.0 mph 74% 0.00 in 234 W/m2
13:02 27.6 °F 20.4 °F 29.89 in West 2.0 mph 3.0 mph 74% 0.00 in 250 W/m2
13:08 27.4 °F 20.2 °F 29.90 in WNW 3.0 mph 5.0 mph 74% 0.00 in 227 W/m2
13:14 27.5 °F 20.3 °F 29.89 in WSW 2.0 mph 5.0 mph 74% 0.00 in 260 W/m2
13:20 27.9 °F 20.7 °F 29.89 in WSW 1.0 mph 1.0 mph 74% 0.00 in 250 W/m2
13:26 28.0 °F 20.5 °F 29.89 in West 1.0 mph 4.0 mph 73% 0.00 in 258 W/m2
13:32 28.2 °F 20.7 °F 29.89 in WNW 2.0 mph 2.0 mph 73% 0.10 in 283 W/m2
13:38 28.9 °F 20.7 °F 29.89 in WNW 2.0 mph 2.0 mph 71% 0.10 in 272 W/m2
13:44 28.5 °F 20.3 °F 29.89 in West 1.0 mph 3.0 mph 71% 0.05 in 255 W/m2
13:50 28.5 °F 20.6 °F 29.88 in West 1.0 mph 1.0 mph 72% 0.04 in 216 W/m2
13:56 28.5 °F 20.3 °F 29.89 in WSW 1.0 mph 3.0 mph 71% 0.04 in 214 W/m2
14:02 28.1 °F 20.2 °F 29.88 in West 2.0 mph 5.0 mph 72% 0.05 in 251 W/m2
14:08 28.3 °F 20.7 °F 29.88 in West 3.0 mph 5.0 mph 73% 0.05 in 292 W/m2
14:14 29.3 °F 20.7 °F 29.88 in NW 2.0 mph 3.0 mph 70% 0.04 in 234 W/m2
14:20 28.6 °F 19.7 °F 29.88 in WNW 1.0 mph 1.0 mph 69% 0.00 in 227 W/m2
14:26 28.6 °F 20.1 °F 29.88 in West 1.0 mph 3.0 mph 70% 0.00 in 174 W/m2
14:32 29.2 °F 20.3 °F 29.87 in WSW 1.0 mph 1.0 mph 69% 0.00 in 341 W/m2
14:38 29.7 °F 20.4 °F 29.88 in West 2.0 mph 4.0 mph 68% 0.04 in 446 W/m2
14:44 29.0 °F 19.8 °F 29.88 in SW 3.0 mph 3.0 mph 68% 0.04 in 225 W/m2
14:50 28.7 °F 19.8 °F 29.88 in WSW 2.0 mph 2.0 mph 69% 0.04 in 448 W/m2
14:56 29.6 °F 20.3 °F 29.87 in WSW 1.0 mph 2.0 mph 68% 0.00 in 288 W/m2
15:02 30.4 °F 20.4 °F 29.88 in WSW 1.0 mph 1.0 mph 66% 0.00 in 443 W/m2
15:08 31.2 °F 20.4 °F 29.88 in WSW 1.0 mph 1.0 mph 64% 0.00 in 411 W/m2
15:14 31.0 °F 20.2 °F 29.88 in West 1.0 mph 2.0 mph 64% 0.00 in 431 W/m2
15:20 30.8 °F 20.0 °F 29.88 in West 1.0 mph 2.0 mph 64% 0.05 in 301 W/m2
15:26 30.4 °F 20.0 °F 29.88 in West 1.0 mph 2.0 mph 65% 0.05 in 216 W/m2
15:32 30.5 °F 20.5 °F 29.88 in WSW 1.0 mph 1.0 mph 66% 0.00 in 392 W/m2
15:38 30.4 °F 20.4 °F 29.88 in WSW 1.0 mph 1.0 mph 66% 0.00 in 179 W/m2
15:44 29.8 °F 20.2 °F 29.88 in West 1.0 mph 3.0 mph 67% 0.00 in 199 W/m2
15:50 29.5 °F 19.9 °F 29.87 in West 1.0 mph 1.0 mph 67% 0.00 in 139 W/m2
15:56 29.0 °F 19.4 °F 29.87 in Calm   1.0 mph 67% 0.00 in 127 W/m2
16:02 29.2 °F 19.9 °F 29.87 in Calm     68% 0.00 in 234 W/m2
16:08 29.3 °F 20.0 °F 29.87 in West 1.0 mph 2.0 mph 68% 0.00 in 281 W/m2
16:14 29.4 °F 20.1 °F 29.87 in WSW 1.0 mph 2.0 mph 68% 0.00 in 149 W/m2
16:20 29.2 °F 19.9 °F 29.87 in WSW 1.0 mph 1.0 mph 68% 0.00 in 146 W/m2
16:26 29.1 °F 19.8 °F 29.87 in WSW 1.0 mph 1.0 mph 68% 0.00 in 67 W/m2
16:32 28.8 °F 19.6 °F 29.86 in Calm   1.0 mph 68% 0.00 in 47 W/m2
16:38 28.5 °F 19.6 °F 29.87 in Calm   1.0 mph 69% 0.00 in 40 W/m2
16:44 28.3 °F 19.8 °F 29.87 in Calm     70% 0.00 in 44 W/m2
16:50 28.1 °F 19.6 °F 29.87 in Calm     70% 0.00 in 40 W/m2
16:56 28.0 °F 19.5 °F 29.87 in Calm     70% 0.00 in 39 W/m2
17:02 27.9 °F 19.4 °F 29.87 in Calm     70% 0.00 in 40 W/m2
17:08 27.7 °F 19.5 °F 29.88 in Calm     71% 0.00 in 32 W/m2
17:14 27.5 °F 19.3 °F 29.88 in Calm     71% 0.00 in 25 W/m2
17:20 27.1 °F 19.3 °F 29.88 in Calm     72% 0.00 in 16 W/m2
17:26 26.6 °F 19.1 °F 29.88 in Calm     73% 0.00 in 11 W/m2
17:32 26.2 °F 19.0 °F 29.88 in Calm     74% 0.00 in 5 W/m2
17:38 25.7 °F 18.6 °F 29.87 in Calm     74% 0.00 in 0 W/m2
17:44 25.3 °F 18.5 °F 29.87 in Calm     75% 0.00 in 0 W/m2
17:50 24.7 °F 17.9 °F 29.87 in Calm     75% 0.00 in 0 W/m2
17:56 24.2 °F 17.7 °F 29.87 in Calm     76% 0.00 in 0 W/m2
18:02 23.6 °F 17.4 °F 29.87 in Calm     77% 0.00 in 0 W/m2
18:08 23.1 °F 17.3 °F 29.86 in Calm     78% 0.00 in 0 W/m2
18:14 23.0 °F 17.5 °F 29.86 in Calm     79% 0.00 in 0 W/m2
18:20 22.7 °F 17.2 °F 29.86 in Calm     79% 0.00 in 0 W/m2
18:26 22.4 °F 17.2 °F 29.86 in Calm     80% 0.00 in 0 W/m2
18:32 22.1 °F 17.2 °F 29.86 in Calm     81% 0.00 in 0 W/m2
18:38 21.8 °F 16.9 °F 29.86 in Calm     81% 0.00 in 0 W/m2
18:44 21.4 °F 16.5 °F 29.86 in Calm     81% 0.00 in 0 W/m2
18:50 21.2 °F 16.6 °F 29.86 in Calm     82% 0.00 in 0 W/m2
18:56 21.0 °F 16.4 °F 29.86 in Calm     82% 0.00 in 0 W/m2
19:02 20.8 °F 16.2 °F 29.86 in Calm     82% 0.00 in 0 W/m2
19:08 20.9 °F 16.5 °F 29.86 in Calm     83% 0.00 in 0 W/m2
19:14 20.9 °F 16.5 °F 29.86 in Calm     83% 0.00 in 0 W/m2
19:20 20.8 °F 16.2 °F 29.86 in Calm     82% 0.00 in 0 W/m2
19:26 20.6 °F 16.0 °F 29.86 in Calm     82% 0.00 in 0 W/m2
19:32 20.2 °F 15.6 °F 29.87 in Calm     82% 0.00 in 0 W/m2
19:38 19.8 °F 15.2 °F 29.87 in Calm     82% 0.00 in 0 W/m2
19:44 19.5 °F 15.2 °F 29.87 in Calm     83% 0.00 in 0 W/m2
19:50 19.2 °F 14.9 °F 29.87 in Calm     83% 0.00 in 0 W/m2
19:56 19.3 °F 15.5 °F 29.88 in Calm     85% 0.00 in 0 W/m2
20:02 19.0 °F 15.0 °F 29.87 in Calm     84% 0.00 in 0 W/m2
20:08 18.6 °F 14.6 °F 29.87 in Calm     84% 0.00 in 0 W/m2
20:14 18.4 °F 14.6 °F 29.86 in Calm     85% 0.00 in 0 W/m2
20:20 18.2 °F 14.4 °F 29.86 in Calm     85% 0.00 in 0 W/m2
20:26 18.5 °F 15.0 °F 29.86 in Calm     86% 0.00 in 0 W/m2
20:32 18.4 °F 15.2 °F 29.86 in Calm     87% 0.00 in 0 W/m2
20:38 18.2 °F 14.7 °F 29.86 in Calm     86% 0.00 in 0 W/m2
20:44 17.8 °F 14.6 °F 29.86 in Calm     87% 0.00 in 0 W/m2
20:50 17.7 °F 14.5 °F 29.85 in Calm     87% 0.00 in 0 W/m2
20:58 17.5 °F 14.3 °F 29.85 in Calm     87% 0.00 in 0 W/m2
21:04 17.5 °F 14.6 °F 29.86 in Calm     88% 0.00 in 0 W/m2
21:10 17.3 °F 14.4 °F 29.85 in Calm     88% 0.00 in 0 W/m2
21:16 16.9 °F 13.7 °F 29.84 in Calm     87% 0.00 in 0 W/m2
21:22 17.0 °F 14.1 °F 29.84 in Calm     88% 0.00 in 0 W/m2
21:28 17.2 °F 14.3 °F 29.84 in Calm     88% 0.00 in 0 W/m2
21:34 17.0 °F 14.1 °F 29.84 in Calm     88% 0.00 in 0 W/m2
21:40 16.9 °F 14.0 °F 29.83 in Calm     88% 0.00 in 0 W/m2
21:46 16.8 °F 13.9 °F 29.83 in Calm     88% 0.00 in 0 W/m2
21:52 16.4 °F 13.5 °F 29.83 in Calm     88% 0.00 in 0 W/m2
21:58 16.8 °F 14.1 °F 29.83 in Calm   1.0 mph 89% 0.00 in 0 W/m2
22:04 16.7 °F 13.8 °F 29.83 in Calm     88% 0.00 in 0 W/m2
22:10 16.8 °F 14.1 °F 29.83 in Calm     89% 0.00 in 0 W/m2
22:16 17.0 °F 14.3 °F 29.83 in Calm   1.0 mph 89% 0.00 in 0 W/m2
22:22 17.0 °F 14.1 °F 29.83 in Calm     88% 0.00 in 0 W/m2
22:28 17.4 °F 14.5 °F 29.83 in Calm     88% 0.00 in 0 W/m2
22:34 17.6 °F 14.9 °F 29.83 in Calm   1.0 mph 89% 0.00 in 0 W/m2
22:40 17.5 °F 14.6 °F 29.83 in NE 1.0 mph 1.0 mph 88% 0.00 in 0 W/m2
22:46 17.4 °F 14.5 °F 29.83 in Calm   1.0 mph 88% 0.00 in 0 W/m2
22:52 17.1 °F 13.9 °F 29.82 in Calm     87% 0.00 in 0 W/m2
22:58 16.8 °F 13.6 °F 29.82 in Calm   1.0 mph 87% 0.00 in 0 W/m2
23:04 16.7 °F 13.5 °F 29.82 in Calm     87% 0.00 in 0 W/m2
23:12 16.9 °F 14.0 °F 29.82 in NE 1.0 mph 1.0 mph 88% 0.00 in 0 W/m2
23:18 17.0 °F 13.8 °F 29.82 in NE 1.0 mph 1.0 mph 87% 0.00 in 0 W/m2
23:24 16.6 °F 13.4 °F 29.82 in Calm   1.0 mph 87% 0.00 in 0 W/m2
23:30 16.5 °F 13.3 °F 29.82 in Calm     87% 0.00 in 0 W/m2
23:36 16.3 °F 13.1 °F 29.81 in Calm     87% 0.00 in 0 W/m2
23:42 16.5 °F 13.6 °F 29.81 in Calm     88% 0.00 in 0 W/m2
23:48 16.6 °F 13.7 °F 29.81 in Calm   1.0 mph 88% 0.00 in 0 W/m2
23:54 16.6 °F 13.7 °F 29.82 in Calm   1.0 mph 88% 0.00 in 0 W/m2
Country Meadow, Clay, NY, USA
Compliments of Weather Underground - 2 mb